"Period start","avg(HW err(1)/warn(2) (#))","avg(Visibility (m))","avg(Weather code (#))","avg(Precip intensity (mm/h))","min(HW err(1)/warn(2) (#))","max(HW err(1)/warn(2) (#))","std(HW err(1)/warn(2) (#))","med(HW err(1)/warn(2) (#))","min(Visibility (m))","max(Visibility (m))","std(Visibility (m))","med(Visibility (m))","min(Weather code (#))","max(Weather code (#))","std(Weather code (#))","med(Weather code (#))","min(Precip intensity (mm/h))","max(Precip intensity (mm/h))","std(Precip intensity (mm/h))","med(Precip intensity (mm/h))"
2016-06-18 00:00:00,2,34252,0,0.00,2,2,0,2,22461,50000,9382,31284,0,0,0,0,0.00,0.00,0.00,0.00
2016-06-18 00:10:00,2,41853,0,0.00,2,2,0,2,26312,50000,7372,43642,0,0,0,0,0.00,0.00,0.00,0.00
2016-06-18 00:20:00,2,36926,0,0.00,2,2,0,2,16112,48437,9752,37471,0,0,0,0,0.00,0.00,0.00,0.00
2016-06-18 00:30:00,2,35416,0,0.00,2,2,0,2,22275,45404,7717,35928,0,0,0,0,0.00,0.00,0.00,0.00
2016-06-18 00:40:00,2,38471,0,0.00,2,2,0,2,22879,50000,8241,37080,0,0,0,0,0.00,0.00,0.00,0.00
2016-06-18 00:50:00,2,46194,0,0.00,2,2,0,2,40223,50000,3299,46822,0,0,0,0,0.00,0.00,0.00,0.00
2016-06-18 01:00:00,2,43697,0,0.00,2,2,0,2,36618,50000,4663,43078,0,0,0,0,0.00,0.00,0.00,0.00
2016-06-18 01:10:00,2,45498,0,0.00,2,2,0,2,37237,50000,4582,47174,0,0,0,0,0.00,0.00,0.00,0.00
2016-06-18 01:20:00,2,46988,0,0.00,2,2,0,2,38481,50000,3351,47764,0,0,0,0,0.00,0.00,0.00,0.00
2016-06-18 01:30:00,2,39096,0,0.00,2,2,0,2,27219,50000,7031,41116,0,0,0,0,0.00,0.00,0.00,0.00
2016-06-18 01:40:00,2,38097,0,0.00,2,2,0,2,20105,50000,11508,41348,0,0,0,0,0.00,0.00,0.00,0.00
2016-06-18 01:50:00,2,42311,0,0.00,2,2,0,2,26629,50000,9313,46774,0,0,0,0,0.00,0.00,0.00,0.00
2016-06-18 02:00:00,2,35631,0,0.00,2,2,0,2,25452,50000,8451,33000,0,0,0,0,0.00,0.00,0.00,0.00
2016-06-18 02:10:00,2,44671,0,0.00,2,2,0,2,36932,50000,4435,44713,0,0,0,0,0.00,0.00,0.00,0.00
2016-06-18 02:20:00,2,44424,0,0.00,2,2,0,2,31853,50000,5809,45194,0,0,0,0,0.00,0.00,0.00,0.00
2016-06-18 02:30:00,2,26887,0,0.00,2,2,0,2,13126,39417,7619,26816,0,0,0,0,0.00,0.00,0.00,0.00
2016-06-18 02:40:00,2,42919,0,0.00,2,2,0,2,31258,50000,5387,44058,0,0,0,0,0.00,0.00,0.00,0.00
2016-06-18 02:50:00,2,38834,0,0.00,2,2,0,2,16623,50000,9512,40558,0,0,0,0,0.00,0.00,0.00,0.00
2016-06-18 03:00:00,2,45697,0,0.00,2,2,0,2,37217,50000,4094,46896,0,0,0,0,0.00,0.00,0.00,0.00
2016-06-18 03:10:00,2,46081,0,0.00,2,2,0,2,38340,50000,3746,47218,0,0,0,0,0.00,0.00,0.00,0.00
2016-06-18 03:20:00,2,45344,0,0.00,2,2,0,2,33643,50000,5457,47404,0,0,0,0,0.00,0.00,0.00,0.00
2016-06-18 03:30:00,2,42941,0,0.00,2,2,0,2,34473,50000,5376,43868,0,0,0,0,0.00,0.00,0.00,0.00
2016-06-18 03:40:00,2,43880,0,0.00,2,2,0,2,29896,50000,5386,45034,0,0,0,0,0.00,0.00,0.00,0.00
2016-06-18 03:50:00,2,45568,0,0.00,2,2,0,2,34800,50000,5511,47982,0,0,0,0,0.00,0.00,0.00,0.00
2016-06-18 04:00:00,2,42845,0,0.00,2,2,0,2,33142,50000,5027,44104,0,0,0,0,0.00,0.00,0.00,0.00
2016-06-18 04:10:00,2,43547,0,0.00,2,2,0,2,34737,50000,5080,44602,0,0,0,0,0.00,0.00,0.00,0.00
2016-06-18 04:20:00,2,45222,0,0.00,2,2,0,2,25989,50000,8252,49794,0,0,0,0,0.00,0.00,0.00,0.00
2016-06-18 04:30:00,2,44295,0,0.00,2,2,0,2,34499,50000,5726,45812,0,0,0,0,0.00,0.00,0.00,0.00
2016-06-18 04:40:00,2,47179,0,0.00,2,2,0,2,38093,50000,3906,50000,0,0,0,0,0.00,0.00,0.00,0.00
2016-06-18 04:50:00,2,45408,0,0.00,2,2,0,2,38683,50000,4291,45854,0,0,0,0,0.00,0.00,0.00,0.00
2016-06-18 05:00:00,2,43934,0,0.00,2,2,0,2,28866,50000,7066,46532,0,0,0,0,0.00,0.00,0.00,0.00
2016-06-18 05:10:00,2,48627,0,0.00,2,2,0,2,46223,50000,1308,48683,0,0,0,0,0.00,0.00,0.00,0.00
2016-06-18 05:20:00,2,48792,0,0.00,2,2,0,2,43201,50000,2120,50000,0,0,0,0,0.00,0.00,0.00,0.00
2016-06-18 05:30:00,2,49123,0,0.00,2,2,0,2,45294,50000,1517,50000,0,0,0,0,0.00,0.00,0.00,0.00
2016-06-18 05:40:00,2,49454,0,0.00,2,2,0,2,44556,50000,1633,50000,0,0,0,0,0.00,0.00,0.00,0.00
2016-06-18 05:50:00,2,48363,0,0.00,2,2,0,2,42668,50000,2361,50000,0,0,0,0,0.00,0.00,0.00,0.00
2016-06-18 06:00:00,2,48046,0,0.00,2,2,0,2,37560,50000,3635,49304,0,0,0,0,0.00,0.00,0.00,0.00
2016-06-18 06:10:00,2,48789,0,0.00,2,2,0,2,42914,50000,2456,50000,0,0,0,0,0.00,0.00,0.00,0.00
2016-06-18 06:20:00,2,47656,0,0.00,2,2,0,2,36996,50000,3938,49676,0,0,0,0,0.00,0.00,0.00,0.00
2016-06-18 06:30:00,2,50000,0,0.00,2,2,0,2,50000,50000,0,50000,0,0,0,0,0.00,0.00,0.00,0.00
2016-06-18 06:40:00,2,49147,0,0.00,2,2,0,2,44890,50000,1652,50000,0,0,0,0,0.00,0.00,0.00,0.00
2016-06-18 06:50:00,2,48528,0,0.00,2,2,0,2,42872,50000,2079,49188,0,0,0,0,0.00,0.00,0.00,0.00
2016-06-18 07:00:00,2,48218,0,0.00,2,2,0,2,42826,50000,2463,50000,0,0,0,0,0.00,0.00,0.00,0.00
2016-06-18 07:10:00,2,50000,0,0.00,2,2,0,2,50000,50000,0,50000,0,0,0,0,0.00,0.00,0.00,0.00
2016-06-18 07:20:00,2,49302,0,0.00,2,2,0,2,44384,50000,1667,50000,0,0,0,0,0.00,0.00,0.00,0.00
2016-06-18 07:30:00,2,48466,0,0.00,2,2,0,2,43478,50000,2101,49591,0,0,0,0,0.00,0.00,0.00,0.00
2016-06-18 07:40:00,2,49708,0,0.00,2,2,0,2,47919,50000,646,50000,0,0,0,0,0.00,0.00,0.00,0.00
2016-06-18 07:50:00,2,45966,0,0.00,2,2,0,2,33708,50000,4890,47770,0,0,0,0,0.00,0.00,0.00,0.00
2016-06-18 08:00:00,2,46959,0,0.00,2,2,0,2,36416,50000,4070,48395,0,0,0,0,0.00,0.00,0.00,0.00
2016-06-18 08:10:00,2,49210,0,0.00,2,2,0,2,47536,50000,1019,50000,0,0,0,0,0.00,0.00,0.00,0.00
2016-06-18 08:20:00,2,49420,0,0.00,2,2,0,2,44792,50000,1553,50000,0,0,0,0,0.00,0.00,0.00,0.00
2016-06-18 08:30:00,2,49520,0,0.00,2,2,0,2,46002,50000,1197,50000,0,0,0,0,0.00,0.00,0.00,0.00
2016-06-18 08:40:00,2,48935,0,0.00,2,2,0,2,44466,50000,1816,50000,0,0,0,0,0.00,0.00,0.00,0.00
2016-06-18 08:50:00,2,49661,0,0.00,2,2,0,2,46905,50000,923,50000,0,0,0,0,0.00,0.00,0.00,0.00
2016-06-18 09:00:00,2,49432,0,0.00,2,2,0,2,46701,50000,1154,50000,0,0,0,0,0.00,0.00,0.00,0.00
2016-06-18 09:10:00,2,48768,0,0.00,2,2,0,2,44934,50000,1868,50000,0,0,0,0,0.00,0.00,0.00,0.00
2016-06-18 09:20:00,2,48022,0,0.00,2,2,0,2,42472,50000,2396,48956,0,0,0,0,0.00,0.00,0.00,0.00
2016-06-18 09:30:00,2,49862,0,0.00,2,2,0,2,48623,50000,413,50000,0,0,0,0,0.00,0.00,0.00,0.00
2016-06-18 09:40:00,2,49953,0,0.00,2,2,0,2,49531,50000,141,50000,0,0,0,0,0.00,0.00,0.00,0.00
2016-06-18 09:50:00,2,49926,0,0.00,2,2,0,2,49260,50000,222,50000,0,0,0,0,0.00,0.00,0.00,0.00
2016-06-18 10:00:00,2,45543,0,0.00,2,2,0,2,31493,50000,6701,50000,0,0,0,0,0.00,0.00,0.00,0.00
2016-06-18 10:10:00,2,49938,0,0.00,2,2,0,2,49380,50000,186,50000,0,0,0,0,0.00,0.00,0.00,0.00
2016-06-18 10:20:00,2,49934,0,0.00,2,2,0,2,49337,50000,199,50000,0,0,0,0,0.00,0.00,0.00,0.00
2016-06-18 10:30:00,2,50000,0,0.00,2,2,0,2,50000,50000,0,50000,0,0,0,0,0.00,0.00,0.00,0.00
2016-06-18 10:40:00,2,50000,0,0.00,2,2,0,2,50000,50000,0,50000,0,0,0,0,0.00,0.00,0.00,0.00
2016-06-18 10:50:00,2,48631,0,0.00,2,2,0,2,43488,50000,2322,50000,0,0,0,0,0.00,0.00,0.00,0.00
2016-06-18 11:00:00,2,50000,0,0.00,2,2,0,2,50000,50000,0,50000,0,0,0,0,0.00,0.00,0.00,0.00
2016-06-18 11:10:00,2,50000,0,0.00,2,2,0,2,50000,50000,0,50000,0,0,0,0,0.00,0.00,0.00,0.00
2016-06-18 11:20:00,2,49737,0,0.00,2,2,0,2,48313,50000,551,50000,0,0,0,0,0.00,0.00,0.00,0.00
2016-06-18 11:30:00,2,50000,0,0.00,2,2,0,2,50000,50000,0,50000,0,0,0,0,0.00,0.00,0.00,0.00
2016-06-18 11:40:00,2,50000,0,0.00,2,2,0,2,50000,50000,0,50000,0,0,0,0,0.00,0.00,0.00,0.00
2016-06-18 11:50:00,2,50000,0,0.00,0,2,1,2,50000,50000,0,50000,0,0,0,0,0.00,0.00,0.00,0.00
2016-06-18 12:00:00,0,47735,0,0.00,0,0,0,0,33989,50000,4991,50000,0,0,0,0,0.00,0.00,0.00,0.00
2016-06-18 12:10:00,0,50000,0,0.00,0,0,0,0,50000,50000,0,50000,0,0,0,0,0.00,0.00,0.00,0.00
2016-06-18 12:20:00,0,50000,0,0.00,0,0,0,0,50000,50000,0,50000,0,0,0,0,0.00,0.00,0.00,0.00
2016-06-18 12:30:00,0,50000,0,0.00,0,0,0,0,50000,50000,0,50000,0,0,0,0,0.00,0.00,0.00,0.00
2016-06-18 12:40:00,0,49963,0,0.00,0,0,0,0,49630,50000,111,50000,0,0,0,0,0.00,0.00,0.00,0.00
2016-06-18 12:50:00,0,49989,0,0.00,0,0,0,0,49894,50000,32,50000,0,0,0,0,0.00,0.00,0.00,0.00
2016-06-18 13:00:00,0,50000,0,0.00,0,0,0,0,50000,50000,0,50000,0,0,0,0,0.00,0.00,0.00,0.00
2016-06-18 13:10:00,0,49989,0,0.00,0,0,0,0,49894,50000,32,50000,0,0,0,0,0.00,0.00,0.00,0.00
2016-06-18 13:20:00,0,49960,0,0.00,0,0,0,0,49601,50000,120,50000,0,0,0,0,0.00,0.00,0.00,0.00
2016-06-18 13:30:00,0,50000,0,0.00,0,0,0,0,50000,50000,0,50000,0,0,0,0,0.00,0.00,0.00,0.00
2016-06-18 13:40:00,0,50000,0,0.00,0,0,0,0,50000,50000,0,50000,0,0,0,0,0.00,0.00,0.00,0.00
2016-06-18 13:50:00,0,49916,0,0.00,0,0,0,0,49315,50000,206,50000,0,0,0,0,0.00,0.00,0.00,0.00
2016-06-18 14:00:00,0,50000,0,0.00,0,0,0,0,50000,50000,0,50000,0,0,0,0,0.00,0.00,0.00,0.00
2016-06-18 14:10:00,0,49970,0,0.00,0,0,0,0,49702,50000,89,50000,0,0,0,0,0.00,0.00,0.00,0.00
2016-06-18 14:20:00,0,50000,0,0.00,0,0,0,0,50000,50000,0,50000,0,0,0,0,0.00,0.00,0.00,0.00
2016-06-18 14:30:00,0,50000,0,0.00,0,0,0,0,50000,50000,0,50000,0,0,0,0,0.00,0.00,0.00,0.00
2016-06-18 14:40:00,0,50000,0,0.00,0,0,0,0,50000,50000,0,50000,0,0,0,0,0.00,0.00,0.00,0.00
2016-06-18 14:50:00,0,50000,0,0.00,0,0,0,0,50000,50000,0,50000,0,0,0,0,0.00,0.00,0.00,0.00
2016-06-18 15:00:00,0,50000,0,0.00,0,0,0,0,50000,50000,0,50000,0,0,0,0,0.00,0.00,0.00,0.00
2016-06-18 15:10:00,0,50000,0,0.00,0,0,0,0,50000,50000,0,50000,0,0,0,0,0.00,0.00,0.00,0.00
2016-06-18 15:20:00,0,49996,0,0.00,0,0,0,0,49961,50000,12,50000,0,0,0,0,0.00,0.00,0.00,0.00
2016-06-18 15:30:00,0,50000,0,0.00,0,0,0,0,50000,50000,0,50000,0,0,0,0,0.00,0.00,0.00,0.00
2016-06-18 15:40:00,0,50000,0,0.00,0,0,0,0,50000,50000,0,50000,0,0,0,0,0.00,0.00,0.00,0.00
2016-06-18 15:50:00,0,50000,0,0.00,0,0,0,0,50000,50000,0,50000,0,0,0,0,0.00,0.00,0.00,0.00
2016-06-18 16:00:00,0,50000,0,0.00,0,0,0,0,50000,50000,0,50000,0,0,0,0,0.00,0.00,0.00,0.00
2016-06-18 16:10:00,0,50000,0,0.00,0,0,0,0,50000,50000,0,50000,0,0,0,0,0.00,0.00,0.00,0.00
2016-06-18 16:20:00,0,50000,0,0.00,0,0,0,0,50000,50000,0,50000,0,0,0,0,0.00,0.00,0.00,0.00
2016-06-18 16:30:00,0,50000,0,0.00,0,0,0,0,50000,50000,0,50000,0,0,0,0,0.00,0.00,0.00,0.00
2016-06-18 16:40:00,0,50000,0,0.00,0,0,0,0,50000,50000,0,50000,0,0,0,0,0.00,0.00,0.00,0.00
2016-06-18 16:50:00,0,50000,0,0.00,0,0,0,0,50000,50000,0,50000,0,0,0,0,0.00,0.00,0.00,0.00
2016-06-18 17:00:00,0,50000,0,0.00,0,0,0,0,50000,50000,0,50000,0,0,0,0,0.00,0.00,0.00,0.00
2016-06-18 17:10:00,0,50000,0,0.00,0,0,0,0,50000,50000,0,50000,0,0,0,0,0.00,0.00,0.00,0.00
2016-06-18 17:20:00,0,50000,0,0.00,0,0,0,0,50000,50000,0,50000,0,0,0,0,0.00,0.00,0.00,0.00
2016-06-18 17:30:00,0,50000,0,0.00,0,0,0,0,50000,50000,0,50000,0,0,0,0,0.00,0.00,0.00,0.00
2016-06-18 17:40:00,0,50000,0,0.00,0,0,0,0,50000,50000,0,50000,0,0,0,0,0.00,0.00,0.00,0.00
2016-06-18 17:50:00,0,50000,0,0.00,0,0,0,0,50000,50000,0,50000,0,0,0,0,0.00,0.00,0.00,0.00
2016-06-18 18:00:00,0,49907,0,0.00,0,0,0,0,49072,50000,278,50000,0,0,0,0,0.00,0.00,0.00,0.00
2016-06-18 18:10:00,0,50000,0,0.00,0,0,0,0,50000,50000,0,50000,0,0,0,0,0.00,0.00,0.00,0.00
2016-06-18 18:20:00,0,50000,0,0.00,0,0,0,0,50000,50000,0,50000,0,0,0,0,0.00,0.00,0.00,0.00
2016-06-18 18:30:00,0,50000,0,0.00,0,0,0,0,50000,50000,0,50000,0,0,0,0,0.00,0.00,0.00,0.00
2016-06-18 18:40:00,0,49952,0,0.00,0,0,0,0,49519,50000,144,50000,0,0,0,0,0.00,0.00,0.00,0.00
2016-06-18 18:50:00,0,50000,0,0.00,0,0,0,0,50000,50000,0,50000,0,0,0,0,0.00,0.00,0.00,0.00
2016-06-18 19:00:00,0,50000,0,0.00,0,0,0,0,50000,50000,0,50000,0,0,0,0,0.00,0.00,0.00,0.00
2016-06-18 19:10:00,0,49869,0,0.00,0,0,0,0,48694,50000,392,50000,0,0,0,0,0.00,0.00,0.00,0.00
2016-06-18 19:20:00,0,50000,0,0.00,0,0,0,0,50000,50000,0,50000,0,0,0,0,0.00,0.00,0.00,0.00
2016-06-18 19:30:00,0,49214,0,0.00,0,0,0,0,44409,50000,1739,50000,0,0,0,0,0.00,0.00,0.00,0.00
2016-06-18 19:40:00,0,50000,0,0.00,0,0,0,0,50000,50000,0,50000,0,0,0,0,0.00,0.00,0.00,0.00
2016-06-18 19:50:00,0,49823,0,0.00,0,0,0,0,48799,50000,365,50000,0,0,0,0,0.00,0.00,0.00,0.00
2016-06-18 20:00:00,0,50000,0,0.00,0,0,0,0,50000,50000,0,50000,0,0,0,0,0.00,0.00,0.00,0.00
2016-06-18 20:10:00,0,50000,0,0.00,0,0,0,0,50000,50000,0,50000,0,0,0,0,0.00,0.00,0.00,0.00
2016-06-18 20:20:00,0,49590,0,0.00,0,0,0,0,46233,50000,1123,50000,0,0,0,0,0.00,0.00,0.00,0.00
2016-06-18 20:30:00,0,50000,0,0.00,0,0,0,0,50000,50000,0,50000,0,0,0,0,0.00,0.00,0.00,0.00
2016-06-18 20:40:00,0,48757,0,0.00,0,0,0,0,43866,50000,2044,50000,0,0,0,0,0.00,0.00,0.00,0.00
2016-06-18 20:50:00,0,48929,0,0.00,0,0,0,0,44666,50000,1678,50000,0,0,0,0,0.00,0.00,0.00,0.00
2016-06-18 21:00:00,0,49331,0,0.00,0,2,1,0,46224,50000,1351,50000,0,0,0,0,0.00,0.00,0.00,0.00
2016-06-18 21:10:00,0,49413,0,0.00,0,0,0,0,45989,50000,1201,50000,0,0,0,0,0.00,0.00,0.00,0.00
2016-06-18 21:20:00,0,49386,0,0.00,0,0,0,0,46912,50000,1028,50000,0,0,0,0,0.00,0.00,0.00,0.00
2016-06-18 21:30:00,0,49502,0,0.00,0,0,0,0,46109,50000,1176,50000,0,0,0,0,0.00,0.00,0.00,0.00
2016-06-18 21:40:00,0,42809,0,0.00,0,0,0,0,14721,50000,10690,47570,0,0,0,0,0.00,0.00,0.00,0.00
2016-06-18 21:50:00,0,49040,0,0.00,0,0,0,0,45833,50000,1421,50000,0,0,0,0,0.00,0.00,0.00,0.00
2016-06-18 22:00:00,0,48981,0,0.00,0,2,1,0,44917,50000,1501,49674,0,0,0,0,0.00,0.00,0.00,0.00
2016-06-18 22:10:00,0,45884,0,0.00,0,2,1,0,39234,50000,3809,46712,0,0,0,0,0.00,0.00,0.00,0.00
2016-06-18 22:20:00,0,49556,0,0.00,0,0,0,0,45555,50000,1334,50000,0,0,0,0,0.00,0.00,0.00,0.00
2016-06-18 22:30:00,1,35894,0,0.00,0,2,1,2,25973,47732,6773,33999,0,0,0,0,0.00,0.00,0.00,0.00
2016-06-18 22:40:00,1,43998,0,0.00,0,2,1,2,26956,50000,6506,45223,0,0,0,0,0.00,0.00,0.00,0.00
2016-06-18 22:50:00,0,43908,0,0.00,0,0,0,0,35892,50000,5132,45957,0,0,0,0,0.00,0.00,0.00,0.00
2016-06-18 23:00:00,0,49538,0,0.00,0,0,0,0,47534,50000,927,50000,0,0,0,0,0.00,0.00,0.00,0.00
2016-06-18 23:10:00,0,48480,0,0.00,0,0,0,0,41745,50000,2648,50000,0,0,0,0,0.00,0.00,0.00,0.00
2016-06-18 23:20:00,0,46305,0,0.00,0,2,1,0,33237,50000,5549,49006,0,0,0,0,0.00,0.00,0.00,0.00
2016-06-18 23:30:00,1,43050,0,0.00,0,2,1,0,33671,50000,5175,42541,0,0,0,0,0.00,0.00,0.00,0.00
2016-06-18 23:40:00,0,43377,0,0.00,0,0,0,0,27210,50000,7177,44404,0,0,0,0,0.00,0.00,0.00,0.00
2016-06-18 23:50:00,0,48275,0,0.00,0,0,0,0,39219,50000,3350,50000,0,0,0,0,0.00,0.00,0.00,0.00
